If you wish to contribute or participate in the discussions about articles you are invited to join SKYbrary as a registered user

 Actions

Ahvaz International Airport

From SKYbrary Wiki

OIAW
Airport
ICAO: OIAW – IATA: AWZ
Summary
Name Ahvaz International Airport
Region Middle East
Territory Iran IR.gif
Location Ahvaz, Khuzestan
Serving Ahvas
Elevation 20.117 m66 ft20.117 m
Coordinates 31° 20' 15", 48° 45' 37.0008"
Runways
Designator Length Width Surface ROPS
12/30 3398 m11,148.294 ft 45 m147.638 ft ASP yes/yes


METAR
Observation OIAW 251930Z 31004KT 8000 NSC 33/03 Q1004
Station Ahwaz
Date/Time 25 September 2018 19:30:00
Wind direction 310°
Wind speed 04 kts
Lowest cloud amount nil significant cloud
Temperature 33°C
Dew point 3°C
Humidity 15%
QNH 1004 hPa
Weather condition n/a

Ahvaz (or Ahwaz) airport serves the city of Ahvaz, west Iran.

Climatology

Hot Desert Climate (Köppen climate classification BWh)

Maps

Terrain

Loading map...

Airport Layout

Loading map...


Accidents & Serious Incidents at or in vicinity of OIAW

None on SKYbrary